Location: Brantley
(31.5822°N, 86.2569°W)
Time: 02:29:06
(UTC+00:00)

Vanguard 3 - Pass Details

Date: 19 February 2026
Orbit: 507 x 3205 km, 33.4° (Epoch: 13 March)

Event Time Altitude Azimuth Distance (km) Brightness Sun altitude
Rises 20:28:26 0° 238° (WSW) 6,579 12.8 34.3°
Reaches altitude 10° 20:33:24 10° 236° (SW) 5,217 12.7 33.6°
Maximum altitude 20:47:09 64° 159° (SSE) 1,808 9.5 31.3°
Drops below altitude 10° 20:54:48 10° 80° (E) 3,035 9.7 30.1°
Sets 20:56:58 0° 77° (ENE) 3,738 10.1 29.7°
